Location: Les Moreaux
(47.2278°N, 1.4966°E)
Time: 23:47:44
(UTC+00:00)

CZ-4C R/B - Pass Details

Date: 10 May 2026
Orbit: 409 x 496 km, 98.0° (Epoch: 7 June)

Event Time Altitude Azimuth Distance (km) Brightness Sun altitude
Rises 01:28:17 0° 359° (N) 2,415 7.7 -21.6°
Reaches altitude 10° 01:30:38 10° 342° (NNW) 1,558 6.2 -21.4°
Enters shadow 01:32:53 20° 299° (WNW) 1,108 4.9 -21.2°
